EW2706 Weather Reports


time (UTC)temp
C
wind
direction
speed
KPH
gust
KPH
rain 1hr
cm
rain 24hr
cm
rain mn
cm
humidity
%
barometer
mb
20260504081503 12 200 8.0 22.5 0.00 0.00 0.00 47 997.0
20260504080502 12 220 8.0 17.7 0.00 0.00 0.00 47 997.3
20260504050211 11 250 0.0 4.8 0.00 0.00 0.00 53 1000.4
20260504045210 10 250 1.6 4.8 0.00 0.00 0.00 58 1000.4
20260504044209 10 250 0.0 3.2 0.00 0.00 0.00 63 1000.7
20260504043208 9 250 0.0 3.2 0.00 0.00 0.00 69 1000.7
20260504042208 9 250 1.6 3.2 0.00 0.00 0.00 73 1001.0
20260504041207 9 250 1.6 3.2 0.00 0.00 0.00 71 1001.0
20260504040206 9 251 0.0 0.0 0.00 0.00 0.00 67 1001.3
20260504035205 10 251 0.0 0.0 0.00 0.00 0.00 66 1001.3
20260504034133 10 251 0.0 0.0 0.00 0.00 0.00 67 1001.7
20260504033132 10 251 0.0 0.0 0.00 0.00 0.00 67 1001.7
20260504032131 10 251 0.0 0.0 0.00 0.00 0.00 66 1002.0
20260504031130 10 251 0.0 0.0 0.00 0.00 0.00 64 1002.0
20260504030129 11 251 0.0 0.0 0.00 0.00 0.00 60 1002.3
20260504025057 11 251 0.0 0.0 0.00 0.00 0.00 53 1002.0
20260504024056 11 251 0.0 0.0 0.00 0.00 0.00 51 1002.3
20260504023055 12 251 0.0 0.0 0.00 0.00 0.00 47 1002.3
20260504022054 12 251 0.0 0.0 0.00 0.00 0.00 45 1002.4
20260504021053 13 251 0.0 0.0 0.00 0.00 0.00 44 1002.4
20260504020052 14 251 0.0 0.0 0.00 0.00 0.00 42 1002.4
20260504015052 15 251 0.0 0.0 0.00 0.00 0.00 40 1002.5
20260504014050 16 251 0.0 0.0 0.00 0.00 0.00 39 1002.5
20260504013019 17 251 0.0 3.2 0.00 0.00 0.00 36 1002.9
20260504012018 18 251 1.6 4.8 0.00 0.00 0.00 33 1002.9
20260504011017 18 250 1.6 9.7 0.00 0.00 0.00 33 1002.9
20260504005945 18 278 3.2 9.7 0.00 0.00 0.00 32 1002.9
20260504004944 18 253 4.8 9.7 0.00 0.00 0.00 31 1002.8
20260504003841 19 276 4.8 17.7 0.00 0.00 0.00 30 1003.2
20260504002840 20 281 4.8 12.9 0.00 0.00 0.00 28 1003.2
20260504001839 20 291 6.4 17.7 0.00 0.00 0.00 28 1003.2
20260504000839 20 273 6.4 22.5 0.00 0.00 0.00 27 1003.1
20260503235838 20 272 4.8 27.4 0.00 0.00 0.00 29 1003.1
20260503234703 20 282 11.3 22.5 0.00 0.00 0.00 27 1003.1
20260503233703 21 267 4.8 17.7 0.00 0.00 0.00 26 1003.2
20260503232702 21 252 12.9 22.5 0.00 0.00 0.00 26 1003.2
20260503231701 21 300 6.4 22.5 0.00 0.00 0.00 25 1003.5
20260503230700 21 291 9.7 22.5 0.00 0.00 0.00 25 1003.5
20260503225659 21 322 11.3 19.3 0.00 0.00 0.00 25 1003.5
20260503224658 21 281 4.8 22.5 0.00 0.00 0.00 27 1003.5
20260503223555 21 269 11.3 25.7 0.00 0.00 0.00 28 1003.8
20260503222523 21 251 8.0 32.2 0.00 0.00 0.00 25 1003.9
20260503221451 21 303 6.4 19.3 0.00 0.00 0.00 26 1003.9
20260503220450 21 268 12.9 25.7 0.00 0.00 0.00 25 1003.9
20260503215449 21 273 8.0 30.6 0.00 0.00 0.00 27 1003.9
20260503214448 21 351 9.7 22.5 0.00 0.00 0.00 26 1003.9
20260503213416 21 294 11.3 32.2 0.00 0.00 0.00 27 1004.3
20260503212415 21 309 8.0 30.6 0.00 0.00 0.00 27 1004.3
20260503211414 21 292 6.4 35.4 0.00 0.00 0.00 28 1004.3
20260503210413 21 281 8.0 19.3 0.00 0.00 0.00 29 1004.4
20260503205412 21 307 6.4 27.4 0.00 0.00 0.00 30 1004.7
20260503204411 21 9 8.0 27.4 0.00 0.00 0.00 30 1004.7
20260503203410 21 279 12.9 32.2 0.00 0.00 0.00 29 1004.7
20260503202410 21 313 8.0 27.4 0.00 0.00 0.00 32 1004.8
20260503201409 21 34 8.0 25.7 0.00 0.00 0.00 33 1005.1
20260503200408 20 320 12.9 32.2 0.00 0.00 0.00 31 1005.1
20260503195407 20 296 6.4 19.3 0.00 0.00 0.00 32 1005.1
20260503194406 20 356 11.3 37.0 0.00 0.00 0.00 33 1005.4
20260503193406 20 231 6.4 27.4 0.00 0.00 0.00 32 1005.4
20260503192305 20 299 6.4 32.2 0.00 0.00 0.00 33 1005.5
20260503191302 20 301 8.0 25.7 0.00 0.00 0.00 32 1005.8
20260503190301 20 359 14.5 35.4 0.00 0.00 0.00 31 1005.8
20260503185300 20 263 9.7 35.4 0.00 0.00 0.00 33 1005.8
20260503184300 20 307 11.3 32.2 0.00 0.00 0.00 32 1005.8
20260503183259 20 356 8.0 27.4 0.00 0.00 0.00 33 1005.8
20260503182258 20 283 19.3 35.4 0.00 0.00 0.00 32 1005.8
20260503181257 20 350 16.1 37.0 0.00 0.00 0.00 33 1005.8
20260503180256 19 343 14.5 30.6 0.00 0.00 0.00 34 1005.8
20260503175225 19 323 9.7 32.2 0.00 0.00 0.00 38 1006.2
20260503174224 19 0 8.0 30.6 0.00 0.00 0.00 39 1006.1
20260503173223 19 7 14.5 32.2 0.00 0.00 0.00 37 1006.1
20260503172222 19 355 9.7 27.4 0.00 0.00 0.00 40 1006.1
20260503171149 19 312 11.3 25.7 0.00 0.00 0.00 39 1006.1
20260503170147 19 331 12.9 25.7 0.00 0.00 0.00 39 1006.1
20260503160111 18 349 11.3 30.6 0.00 0.00 0.00 45 1006.0
20260503130851 12 25 6.4 17.7 0.00 0.00 0.00 57 1004.8
20260503110737 9 201 0.0 8.0 0.00 0.00 0.00 60 1003.0